Location: Unspecified
(0.0000°N, 0.0000°E)
Time: 18:14:31
(UTC+00:00)

Courier 1B - Visible Passes

Search period start: 25 October 2014 00:00
Search period end: 04 November 2014 00:00
Orbit: 963 x 1209 km, 28.3° (Epoch: 23 October)

Date Brightness Start Highest point End Pass type
(mag) Time Alt. Az. Time Alt. Az. Time Alt. Az.
25 Oct 9.4 03:25:06 17° S 03:28:09 23° SSE 03:33:27 10° ESE visible
25 Oct 7.9 05:15:33 10° WSW 05:22:24 82° SSE 05:29:43 10° ENE visible
25 Oct 9.1 18:44:26 10° W 18:50:52 34° SSW 18:56:59 10° SE visible
26 Oct 9.9 02:35:27 16° SE 02:35:27 16° SE 02:38:17 10° ESE visible
26 Oct 8.1 04:22:25 12° SW 04:28:37 59° SSE 04:35:35 10° ENE visible
26 Oct 10.0 19:48:12 10° SW 19:51:39 14° SSW 19:55:01 10° S visible
27 Oct 8.5 03:32:50 33° S 03:34:51 41° SSE 03:41:18 10° E visible
27 Oct 9.9 18:52:36 10° WSW 18:57:37 20° SSW 19:02:28 10° SSE visible
28 Oct 9.4 02:43:17 24° ESE 02:43:17 24° ESE 02:46:48 10° E visible
28 Oct 7.5 04:30:15 19° WSW 04:35:12 78° NNW 04:42:15 10° NE visible
28 Oct 9.7 17:57:31 10° W 18:03:39 27° SSW 18:09:32 10° SSE visible
29 Oct 7.5 03:40:42 68° SSW 03:41:27 76° SSE 03:48:19 10° ENE visible
29 Oct 10.2 19:02:26 10° SW 19:04:39 11° SSW 19:06:50 10° S visible
30 Oct 9.2 02:51:08 28° E 02:51:08 28° E 02:54:16 10° ENE visible
30 Oct 8.0 04:38:06 23° W 04:41:50 42° NNW 04:48:21 10° NE visible
30 Oct 10.0 18:06:09 10° WSW 18:10:31 16° SSW 18:14:45 10° SSE visible
31 Oct 7.6 03:48:29 57° NNW 03:48:29 57° NNW 03:54:44 10° NE visible
01 Nov 9.3 02:58:49 22° NE 02:58:49 22° NE 03:01:01 10° ENE visible
01 Nov 8.8 04:45:46 18° WNW 04:48:38 23° NNW 04:53:55 10° NNE visible
02 Nov 8.6 03:56:02 29° N 03:56:02 29° N 04:00:37 10° NNE visible
03 Nov 9.7 03:06:13 14° NE 03:06:13 14° NE 03:07:12 10° NE visible
03 Nov 9.3 04:53:09 11° NW 04:55:41 13° NNW 04:58:36 10° N visible
